Voltar ao catálogo

STARLINK-35700

AtivoComunicaçõesVLEO
NORAD 66217·PAYLOAD·🇺🇸 United States

Lançado Oct 28, 2025 de Vandenberg Space Force Base

Loading…

Próximas Passagens (próximas 24 horas)

TLE

AtualizadoSource: CelesTrak SupGP

Época: Sep 15, 2026, 02:42 UTC

1 66217C 25244M   26258.11298611 -.00028768  00000+0 -85009-3 0  2586
2 66217  53.1593  68.6644 0001198  85.8252 171.0107 15.34400206    16

Acompanhe STARLINK-35700 em tempo real com AllMySat

Download on the App Store